Flag for Vatican City State Weather past 2 weeks in Vatican City, Vatican City State

Now
55 °F

Light rain. Passing clouds.


Feels Like: 55 °F
Forecast: 52 / 63 °F
Wind: 1 mph from West

Location: Rome / Ciampino

Current Time: May 22, 2015 at 10:46:46 PM

Latest Report: May 22, 2015 at 9:45 PM


Visibility: N/A

Pressure: 29.83 "Hg

Humidity: 88%

Dew point: 52 °F

Location of Vatican CityLocation

Historic Weather in Vatican City — Graph

°F

Vatican City temperature yesterday

Maximum temperature yesterday: 66 °F (at 10:45 AM)
Minimum temperature yesterday: 55 °F (at 11:15 PM)
Average temperature yesterday: 62 °F

Past Weeks' High & Low Weather Summary

 TemperatureHumidityPressure
High86 °F (May 17, 2:15 PM)94% (May 13, 10:15 PM)30.24 "Hg (May 13, 10:15 PM)
Low48 °F (May 22, 5:45 AM)23% (May 10, 3:45 PM)29.65 "Hg (May 15, 11:45 AM)
Average67 °F62%29.96 "Hg
* Reported May 7 9:15 PM — May 22 9:45 PM, Vatican City, Weather by CustomWeather, © 2015

Note: Actual official high and low records may vary slightly from our data, if they occured in-between our weather recording intervals... More about our weather records

Advertising

Vatican City weather history for previous 24 hours

 ConditionsComfort  
Time TempWeatherWind HumidityBarometerVisibility
9:45 PM
Fri, May 22
55 °FLight rain. Passing clouds.1 mph88%29.83 "HgN/A
9:15 PM57 °FLight rain. Scattered clouds.1 mph88%29.83 "HgN/A
8:45 PM57 °FLight rain. Broken clouds.No wind88%29.83 "HgN/A
8:15 PM57 °FLight rain. Broken clouds.6 mph82%29.83 "HgN/A
7:45 PM59 °FLight rain. Broken clouds.3 mph72%29.80 "HgN/A
7:15 PM59 °FScattered clouds.3 mph68%29.80 "HgN/A
6:45 PM61 °FScattered clouds.9 mph63%29.80 "HgN/A
6:15 PM61 °FScattered clouds.6 mph59%29.80 "HgN/A
5:45 PM63 °FScattered clouds.8 mph56%29.80 "HgN/A
5:15 PM63 °FScattered clouds.8 mph59%29.80 "HgN/A
4:45 PM63 °FScattered clouds.1 mph64%29.80 "HgN/A
4:15 PM61 °FScattered clouds.2 mph72%29.80 "HgN/A
3:45 PM59 °FScattered clouds.5 mph82%29.80 "HgN/A
3:15 PM61 °FScattered clouds.No wind77%29.80 "HgN/A
2:45 PM63 °FThunderstorms. Scattered clouds.14 mph68%29.80 "Hg4 mi
2:15 PM66 °FScattered clouds.12 mph40%29.80 "HgN/A
1:45 PM66 °FScattered clouds.9 mph37%29.80 "HgN/A
1:15 PM66 °FScattered clouds.6 mph35%29.83 "HgN/A
12:45 PM66 °FScattered clouds.6 mph35%29.83 "HgN/A
12:15 PM66 °FScattered clouds.6 mph35%29.83 "HgN/A
11:45 AM64 °FPassing clouds.5 mph37%29.83 "HgN/A
11:15 AM63 °FPassing clouds.5 mph39%29.86 "HgN/A
10:45 AM63 °FPassing clouds.6 mph39%29.86 "HgN/A
10:15 AM61 °FPassing clouds.6 mph45%29.86 "HgN/A
9:45 AM59 °FPassing clouds.2 mph51%29.86 "HgN/A
9:15 AM57 °FPassing clouds.5 mph55%29.86 "HgN/A
8:45 AM55 °FPassing clouds.3 mph63%29.86 "HgN/A
8:15 AM54 °FPassing clouds.2 mph63%29.86 "HgN/A
7:45 AM52 °FPassing clouds.No wind72%29.86 "HgN/A
7:15 AM50 °FPassing clouds.3 mph71%29.86 "HgN/A
6:45 AM48 °FPassing clouds.1 mph82%29.86 "HgN/A
6:15 AM48 °FPassing clouds.2 mph82%29.86 "HgN/A
5:45 AM48 °FPassing clouds.1 mph82%29.86 "HgN/A
5:15 AM50 °FPassing clouds.No wind76%29.89 "HgN/A
4:45 AM50 °FPassing clouds.5 mph71%29.89 "HgN/A
4:15 AM50 °FPassing clouds.3 mph76%29.89 "HgN/A
3:45 AM50 °FPassing clouds.No wind71%29.92 "HgN/A
3:15 AM50 °FPassing clouds.No wind71%29.92 "HgN/A
2:45 AM50 °FPassing clouds.5 mph71%29.92 "HgN/A
2:15 AM50 °FPassing clouds.5 mph76%29.92 "HgN/A
1:15 AM55 °FClear.No wind67%29.95 "Hg10 mi
12:45 AM55 °FClear.1 mph72%29.98 "Hg10 mi
12:15 AM55 °FClear.3 mph77%29.98 "Hg10 mi
11:45 PM
Thu, May 21
55 °FClear.3 mph77%29.98 "Hg10 mi
11:15 PM55 °FClear.5 mph77%29.98 "Hg10 mi
10:45 PM57 °FPassing clouds.2 mph67%29.98 "HgN/A
10:15 PM57 °FPassing clouds.No wind67%29.98 "HgN/A
Weather by CustomWeather, © 2015

See weather overviewHow to use our weather pages